Meteo Giornale » Osservazioni meteo Stati Uniti (USA) » Napa
ore: 12:54 - Osservazioni Meteo Napa
Lat. 38° 12' N Lon. 122° 16' W Alt. 10 metri s.l.m.
22 °C
Molto Nuvoloso
Temp. 24 Ore
15 °C
22 °C
Sud/Sud-Ovest
24 Km/h
Dew point 12 °C
Umidità 53 %
Visibilità 10 Km
Il sole sorge alle ore 06:39
Il sole tramonta alle ore 19:38
| Data e Ora | Cielo e Fenomeni | T °C | DP °C | Um. % | Pres. hPa | Vis. km | Vento km/h | |
|---|---|---|---|---|---|---|---|---|
| Oggi h: 12:54 | Molto Nuvoloso | 22 | 12 | 53 | 1016 | 10 | S/SO 24 | |
| Oggi h: 11:54 | Molto Nuvoloso | 21 | 12 | 56 | 1016 | 10 | S/SO 18.5 | |
| Oggi h: 10:54 | Coperto | 19 | 13 | 68 | 1016 | 10 | S/SO 13 | |
| Oggi h: 09:54 | Coperto | 18 | 13 | 72 | 1016 | 10 | O 14.8 | |
| Oggi h: 08:54 | Coperto | 17 | 13 | 77 | 1015 | 10 | O 22.2 | |
| Oggi h: 08:45 | Molto Nuvoloso | 17 | 13 | 77 | 1015 | 10 | O 11.1 | |
| Oggi h: 07:54 | Coperto | 16 | 13 | 82 | 1015 | 10 | O 11.1 | |
| Oggi h: 06:54 | Molto Nuvoloso | 15 | 13 | 87 | 1014 | 10 | O 9.3 | |
| Oggi h: 05:54 | Coperto | 16 | 13 | 82 | 1013 | 10 | O 16.7 | |
| Oggi h: 04:54 | Molto Nuvoloso | 15 | 13 | 87 | 1013 | 10 | O 13 | |
| Oggi h: 03:54 | Coperto | 16 | 13 | 82 | 1013 | 10 | O 18.5 | |
| Oggi h: 03:24 | Coperto | 16 | 13 | 82 | 1013 | 10 | O 18.5 | |
| Oggi h: 02:54 | Coperto | 16 | 13 | 82 | 1013 | 10 | O 18.5 | |
| Oggi h: 01:54 | Coperto | 16 | 13 | 82 | 1013 | 10 | O 22.2 | |
| Oggi h: 00:54 | Coperto | 16 | 13 | 82 | 1013 | 10 | O 18.5 | |
| Ieri h: 23:54 | Molto Nuvoloso | 16 | 13 | 82 | 1013 | 10 | O 13 | |
| Ieri h: 22:54 | Coperto | 17 | 13 | 77 | 1013 | 10 | O 24 | |
| Ieri h: 21:54 | Coperto | 17 | 12 | 72 | 1013 | 10 | O 20.3 | |
| Ieri h: 20:54 | Coperto | 17 | 12 | 72 | 1012 | 10 | O/SO 24 | |
| Ieri h: 19:54 | Molto Nuvoloso | 17 | 12 | 72 | 1012 | 10 | O/SO 29.6 | |
| Ieri h: 19:18 | Molto Nuvoloso | 18 | 12 | 67 | 1012 | 10 | O/SO 25.9 | |
| Ieri h: 18:54 | Sereno | 18 | 12 | 67 | 1012 | 10 | O/SO 31.5 | |
| Ieri h: 17:54 | Sereno | 19 | 12 | 63 | 1011 | 10 | O/SO 27.8 | |
| Ieri h: 16:54 | Sereno | 21 | 12 | 56 | 1012 | 10 | O/SO 31.5 | |
| Ieri h: 15:54 | Sereno | 22 | 12 | 53 | 1012 | 10 | O/SO 25.9 | |
| Ieri h: 14:54 | Sereno | 22 | 13 | 56 | 1012 | 10 | S/SO 27.8 | |
| Ieri h: 13:54 | Sereno | 21 | 12 | 56 | 1013 | 10 | S/SO 25.9 | |



